Simultaneous Nadir Overpasses (SNOs) Predictions

Prediction of SNOs between GOES-14 and NOAA-20 Satellite Orbit:

Table of predicted SNOs for the next 14.0 days since TLE Epoch: 4/25/2020
Index Date Time (GOES-14) GOES-14 Lat,Lon NOAA-20 Lat,Lon Distance(km) Time Diff (sec)
1 04/25/2020 20:15:04 -0.13,-104.16 0.17,-102.82 153.22 80
2 04/27/2020 08:36:52 0.11,-104.13 1.01,-108.09 451.45 80
3 04/28/2020 08:20:47 0.12,-104.13 -0.02,-103.56 65.55 80
4 04/30/2020 20:23:59 -0.12,-104.17 -0.13,-104.34 19.21 80
5 05/01/2020 20:02:33 -0.13,-104.16 0.85, -99.80 496.78 80
6 05/03/2020 08:24:21 0.12,-104.12 0.33,-105.07 109.00 80
7 05/04/2020 08:08:16 0.13,-104.12 -0.70,-100.55 408.05 80
8 05/05/2020 20:30:13 -0.11,-104.17 -0.48,-105.85 191.22 80
9 05/06/2020 20:08:47 -0.12,-104.17 0.50,-101.31 324.62 80
10 05/08/2020 08:30:34 0.09,-104.10 0.68,-106.58 283.56 80




NCC Satellite Simultaneous Nadir Overpasses (SNOs) Prediction Service
